Time,TemperatureF,DewpointF,PressureIn,WindDirection,WindDirectionDegrees,WindSpeedMPH,WindSpeedGustMPH,Humidity,HourlyPrecipIn,Conditions,Clouds,dailyrainin,SoftwareType,DateUTC
2013-07-02 00:00:00,63.9,45.4,30.07,North,32767,-999.0,0.0,51,0.00,,,0.00,Wunderground v.1.15,2013-07-02 04:00:00,
2013-07-02 00:05:00,63.9,45.9,30.07,North,32767,-999.0,0.0,52,0.00,,,0.00,Wunderground v.1.15,2013-07-02 04:05:00,
2013-07-02 00:10:00,63.8,45.8,30.06,North,32767,-999.0,0.0,52,0.00,,,0.00,Wunderground v.1.15,2013-07-02 04:10:00,
2013-07-02 00:15:00,63.7,45.7,30.06,North,32767,-999.0,0.0,52,0.00,,,0.00,Wunderground v.1.15,2013-07-02 04:15:00,
2013-07-02 00:20:00,63.6,44.6,30.06,N/A,-737280,0.0,-999.0,50,0.00,,,0.29,Wunderground v.1.15,2013-07-02 04:20:00,
2013-07-02 00:25:00,63.8,43.7,30.06,North,32767,-999.0,0.0,48,0.00,,,0.00,Wunderground v.1.15,2013-07-02 04:25:00,
2013-07-02 00:30:00,63.7,43.6,30.05,N/A,-737280,0.0,-999.0,48,0.00,,,0.29,Wunderground v.1.15,2013-07-02 04:30:00,
2013-07-02 00:35:00,63.7,43.6,30.06,North,32767,-999.0,0.0,48,0.00,,,0.00,Wunderground v.1.15,2013-07-02 04:35:00,
2013-07-02 00:40:00,63.6,43.5,30.05,N/A,-737280,0.0,-999.0,48,0.00,,,0.29,Wunderground v.1.15,2013-07-02 04:40:00,
2013-07-02 00:45:00,63.6,43.0,30.05,North,32767,-999.0,0.0,47,0.00,,,0.00,Wunderground v.1.15,2013-07-02 04:45:00,
2013-07-02 00:50:00,63.5,43.4,30.05,N/A,-737280,0.0,-999.0,48,0.00,,,0.29,Wunderground v.1.15,2013-07-02 04:50:00,
2013-07-02 00:55:00,63.4,43.4,30.05,North,32767,-999.0,0.0,48,0.00,,,0.00,Wunderground v.1.15,2013-07-02 04:55:00,
2013-07-02 01:00:00,63.3,43.8,30.05,N/A,-737280,0.0,-999.0,49,0.00,,,0.29,Wunderground v.1.15,2013-07-02 05:00:00,
2013-07-02 01:05:00,63.2,43.7,30.05,North,32767,-999.0,0.0,49,0.00,,,0.00,Wunderground v.1.15,2013-07-02 05:05:00,
2013-07-02 01:10:00,63.1,44.2,30.05,N/A,-737280,0.0,-999.0,50,0.00,,,0.29,Wunderground v.1.15,2013-07-02 05:10:00,
2013-07-02 01:15:00,63.0,43.5,30.05,North,32767,-999.0,0.0,49,0.00,,,0.00,Wunderground v.1.15,2013-07-02 05:15:00,
2013-07-02 01:20:00,63.0,44.1,30.05,N/A,-737280,0.0,-999.0,50,0.00,,,0.29,Wunderground v.1.15,2013-07-02 05:20:00,
2013-07-02 01:25:00,62.9,44.0,30.05,N/A,-737280,0.0,-999.0,50,0.00,,,0.29,Wunderground v.1.15,2013-07-02 05:25:00,
2013-07-02 01:30:00,62.8,43.9,30.05,N/A,-737280,0.0,-999.0,50,0.00,,,0.29,Wunderground v.1.15,2013-07-02 05:30:00,
2013-07-02 01:35:00,62.8,44.4,30.05,N/A,-737280,0.0,-999.0,51,0.00,,,0.29,Wunderground v.1.15,2013-07-02 05:35:00,
2013-07-02 01:40:00,62.8,44.4,30.05,N/A,-737280,0.0,-999.0,51,0.00,,,0.29,Wunderground v.1.15,2013-07-02 05:40:00,
2013-07-02 01:45:00,62.6,44.7,30.05,N/A,-737280,0.0,-999.0,52,0.00,,,0.29,Wunderground v.1.15,2013-07-02 05:45:00,
2013-07-02 01:50:00,62.6,44.7,30.05,N/A,-737280,0.0,-999.0,52,0.00,,,0.29,Wunderground v.1.15,2013-07-02 05:50:00,
2013-07-02 01:55:00,62.5,44.6,30.05,N/A,-737280,0.0,-999.0,52,0.00,,,0.29,Wunderground v.1.15,2013-07-02 05:55:00,
2013-07-02 02:00:00,62.4,44.5,30.05,N/A,-737280,0.0,-999.0,52,0.00,,,0.29,Wunderground v.1.15,2013-07-02 06:00:00,
2013-07-02 02:05:00,62.4,45.0,30.05,N/A,-737280,0.0,-999.0,53,0.00,,,0.29,Wunderground v.1.15,2013-07-02 06:05:00,
2013-07-02 02:10:00,62.4,45.0,30.05,N/A,-737280,0.0,-999.0,53,0.00,,,0.29,Wunderground v.1.15,2013-07-02 06:10:00,
2013-07-02 02:15:00,62.3,44.9,30.05,N/A,-737280,0.0,-999.0,53,0.00,,,0.29,Wunderground v.1.15,2013-07-02 06:15:00,
2013-07-02 02:20:00,62.3,45.4,30.04,N/A,-737280,0.0,-999.0,54,0.00,,,0.29,Wunderground v.1.15,2013-07-02 06:20:00,
2013-07-02 02:25:00,62.3,45.4,30.04,N/A,-737280,0.0,-999.0,54,0.00,,,0.29,Wunderground v.1.15,2013-07-02 06:25:00,
2013-07-02 02:30:00,62.3,45.9,30.04,N/A,-737280,0.0,-999.0,55,0.00,,,0.29,Wunderground v.1.15,2013-07-02 06:30:00,
2013-07-02 02:35:00,62.2,45.3,30.04,N/A,-737280,0.0,-999.0,54,0.00,,,0.29,Wunderground v.1.15,2013-07-02 06:35:00,
2013-07-02 02:40:00,62.2,45.8,30.05,N/A,-737280,0.0,-999.0,55,0.00,,,0.29,Wunderground v.1.15,2013-07-02 06:40:00,
2013-07-02 02:45:00,62.1,45.7,30.05,N/A,-737280,0.0,-999.0,55,0.00,,,0.29,Wunderground v.1.15,2013-07-02 06:45:00,
2013-07-02 02:50:00,62.0,45.6,30.05,N/A,-737280,0.0,-999.0,55,0.00,,,0.29,Wunderground v.1.15,2013-07-02 06:50:00,
2013-07-02 02:55:00,62.0,45.6,30.05,N/A,-737280,0.0,-999.0,55,0.00,,,0.29,Wunderground v.1.15,2013-07-02 06:55:00,
2013-07-02 03:00:00,62.0,45.6,30.04,N/A,-737280,0.0,-999.0,55,0.00,,,0.29,Wunderground v.1.15,2013-07-02 07:00:00,
2013-07-02 03:05:00,62.0,46.1,30.05,N/A,-737280,0.0,-999.0,56,0.00,,,0.29,Wunderground v.1.15,2013-07-02 07:05:00,
2013-07-02 03:10:00,61.9,46.0,30.05,N/A,-737280,0.0,-999.0,56,0.00,,,0.29,Wunderground v.1.15,2013-07-02 07:10:00,
2013-07-02 03:15:00,61.8,46.4,30.05,N/A,-737280,0.0,-999.0,57,0.00,,,0.29,Wunderground v.1.15,2013-07-02 07:15:00,
2013-07-02 03:20:00,61.7,46.3,30.04,N/A,-737280,0.0,-999.0,57,0.00,,,0.29,Wunderground v.1.15,2013-07-02 07:20:00,
2013-07-02 03:25:00,61.7,46.3,30.04,N/A,-737280,0.0,-999.0,57,0.00,,,0.29,Wunderground v.1.15,2013-07-02 07:25:00,
2013-07-02 03:30:00,61.7,45.8,30.04,N/A,-737280,0.0,-999.0,56,0.00,,,0.29,Wunderground v.1.15,2013-07-02 07:30:00,
2013-07-02 03:35:00,61.8,45.9,30.04,N/A,-737280,0.0,-999.0,56,0.00,,,0.29,Wunderground v.1.15,2013-07-02 07:35:00,
2013-07-02 03:40:00,61.8,45.5,30.04,N/A,-737280,0.0,-999.0,55,0.00,,,0.29,Wunderground v.1.15,2013-07-02 07:40:00,
2013-07-02 03:45:00,61.8,45.5,30.04,N/A,-737280,0.0,-999.0,55,0.00,,,0.29,Wunderground v.1.15,2013-07-02 07:45:00,
2013-07-02 03:50:00,61.7,45.8,30.04,N/A,-737280,0.0,-999.0,56,0.00,,,0.29,Wunderground v.1.15,2013-07-02 07:50:00,
2013-07-02 03:55:00,61.7,45.8,30.04,N/A,-737280,0.0,-999.0,56,0.00,,,0.29,Wunderground v.1.15,2013-07-02 07:55:00,
2013-07-02 04:00:00,61.6,45.7,30.03,N/A,-737280,0.0,-999.0,56,0.00,,,0.29,Wunderground v.1.15,2013-07-02 08:00:00,
2013-07-02 04:05:00,61.5,45.7,30.03,N/A,-737280,0.0,-999.0,56,0.00,,,0.29,Wunderground v.1.15,2013-07-02 08:05:00,
2013-07-02 04:10:00,61.5,45.7,30.03,N/A,-737280,0.0,-999.0,56,0.00,,,0.29,Wunderground v.1.15,2013-07-02 08:10:00,
2013-07-02 04:15:00,61.5,46.1,30.03,N/A,-737280,0.0,-999.0,57,0.00,,,0.29,Wunderground v.1.15,2013-07-02 08:15:00,
2013-07-02 04:20:00,61.4,46.0,30.04,N/A,-737280,0.0,-999.0,57,0.00,,,0.29,Wunderground v.1.15,2013-07-02 08:20:00,
2013-07-02 04:25:00,61.3,45.9,30.04,N/A,-737280,0.0,-999.0,57,0.00,,,0.29,Wunderground v.1.15,2013-07-02 08:25:00,
2013-07-02 04:30:00,61.2,46.3,30.04,N/A,-737280,0.0,-999.0,58,0.00,,,0.29,Wunderground v.1.15,2013-07-02 08:30:00,
2013-07-02 04:35:00,61.1,46.7,30.04,N/A,-737280,0.0,-999.0,59,0.00,,,0.29,Wunderground v.1.15,2013-07-02 08:35:00,
2013-07-02 04:40:00,60.9,46.5,30.04,N/A,-737280,0.0,-999.0,59,0.00,,,0.29,Wunderground v.1.15,2013-07-02 08:40:00,
2013-07-02 04:45:00,60.9,46.5,30.04,N/A,-737280,0.0,-999.0,59,0.00,,,0.29,Wunderground v.1.15,2013-07-02 08:45:00,
2013-07-02 04:50:00,60.8,46.4,30.04,N/A,-737280,0.0,-999.0,59,0.00,,,0.29,Wunderground v.1.15,2013-07-02 08:50:00,
2013-07-02 04:55:00,60.7,46.3,30.04,N/A,-737280,0.0,-999.0,59,0.00,,,0.29,Wunderground v.1.15,2013-07-02 08:55:00,
2013-07-02 05:00:00,60.7,46.7,30.04,N/A,-737280,0.0,-999.0,60,0.00,,,0.29,Wunderground v.1.15,2013-07-02 09:00:00,
2013-07-02 05:05:00,60.7,46.7,30.04,N/A,-737280,0.0,-999.0,60,0.00,,,0.29,Wunderground v.1.15,2013-07-02 09:05:00,
2013-07-02 05:10:00,60.5,47.0,30.05,N/A,-737280,0.0,-999.0,61,0.00,,,0.29,Wunderground v.1.15,2013-07-02 09:10:00,
2013-07-02 05:15:00,60.4,47.3,30.05,N/A,-737280,0.0,-999.0,62,0.00,,,0.29,Wunderground v.1.15,2013-07-02 09:15:00,
2013-07-02 05:20:00,60.2,47.6,30.05,N/A,-737280,0.0,-999.0,63,0.00,,,0.29,Wunderground v.1.15,2013-07-02 09:20:00,
2013-07-02 05:25:00,60.0,47.8,30.05,N/A,-737280,0.0,-999.0,64,0.00,,,0.29,Wunderground v.1.15,2013-07-02 09:25:00,
2013-07-02 05:30:00,59.8,48.4,30.05,N/A,-737280,0.0,-999.0,66,0.00,,,0.29,Wunderground v.1.15,2013-07-02 09:30:00,
2013-07-02 05:35:00,59.6,48.6,30.05,N/A,-737280,0.0,-999.0,67,0.00,,,0.29,Wunderground v.1.15,2013-07-02 09:35:00,
2013-07-02 05:40:00,59.2,49.0,30.05,N/A,-737280,0.0,-999.0,69,0.00,,,0.29,Wunderground v.1.15,2013-07-02 09:40:00,
2013-07-02 05:45:00,59.0,49.2,30.05,N/A,-737280,0.0,-999.0,70,0.00,,,0.29,Wunderground v.1.15,2013-07-02 09:45:00,
2013-07-02 05:50:00,59.0,49.2,30.05,N/A,-737280,0.0,-999.0,70,0.00,,,0.29,Wunderground v.1.15,2013-07-02 09:50:00,
2013-07-02 05:55:00,58.7,48.9,30.04,N/A,-737280,0.0,-999.0,70,0.00,,,0.29,Wunderground v.1.15,2013-07-02 09:55:00,
2013-07-02 06:00:00,58.6,49.6,30.05,N/A,-737280,0.0,-999.0,72,0.00,,,0.29,Wunderground v.1.15,2013-07-02 10:00:00,
2013-07-02 06:05:00,58.6,50.0,30.04,N/A,-737280,0.0,-999.0,73,0.00,,,0.29,Wunderground v.1.15,2013-07-02 10:05:00,
2013-07-02 06:10:00,58.5,50.2,30.04,N/A,-737280,0.0,-999.0,74,0.00,,,0.29,Wunderground v.1.15,2013-07-02 10:10:00,
2013-07-02 06:15:00,58.5,50.6,30.04,N/A,-737280,0.0,-999.0,75,0.00,,,0.29,Wunderground v.1.15,2013-07-02 10:15:00,
2013-07-02 06:20:00,58.5,51.0,30.04,N/A,-737280,0.0,-999.0,76,0.00,,,0.29,Wunderground v.1.15,2013-07-02 10:20:00,
2013-07-02 06:25:00,58.3,51.1,30.04,N/A,-737280,0.0,-999.0,77,0.00,,,0.29,Wunderground v.1.15,2013-07-02 10:25:00,
2013-07-02 06:30:00,58.0,51.5,30.04,North,32767,-999.0,0.0,79,0.00,,,0.00,Wunderground v.1.15,2013-07-02 10:30:00,
2013-07-02 06:35:00,57.8,51.7,30.04,North,32767,-999.0,0.0,80,0.00,,,0.00,Wunderground v.1.15,2013-07-02 10:35:00,
2013-07-02 06:40:00,57.6,52.1,30.04,N/A,-737280,0.0,-999.0,82,0.00,,,0.29,Wunderground v.1.15,2013-07-02 10:40:00,
2013-07-02 06:45:00,57.2,52.1,30.04,North,32767,-999.0,0.0,83,0.00,,,0.00,Wunderground v.1.15,2013-07-02 10:45:00,
2013-07-02 06:50:00,57.1,52.0,30.04,N/A,-737280,0.0,-999.0,83,0.00,,,0.29,Wunderground v.1.15,2013-07-02 10:50:00,
2013-07-02 06:55:00,57.2,52.1,30.04,North,32767,-999.0,0.0,83,0.00,,,0.00,Wunderground v.1.15,2013-07-02 10:55:00,
2013-07-02 07:00:00,57.3,52.2,30.04,North,32767,-999.0,0.0,83,0.00,,,0.00,Wunderground v.1.15,2013-07-02 11:00:00,
2013-07-02 07:05:00,57.2,52.4,30.04,North,32767,-999.0,0.0,84,0.00,,,0.00,Wunderground v.1.15,2013-07-02 11:05:00,
2013-07-02 07:10:00,57.2,52.7,30.04,N/A,-737280,0.0,-999.0,85,0.00,,,0.29,Wunderground v.1.15,2013-07-02 11:10:00,
2013-07-02 07:15:00,57.2,53.0,30.04,North,32767,-999.0,0.0,86,0.00,,,0.00,Wunderground v.1.15,2013-07-02 11:15:00,
2013-07-02 07:20:00,57.1,53.3,30.04,North,32767,-999.0,0.0,87,0.00,,,0.00,Wunderground v.1.15,2013-07-02 11:20:00,
2013-07-02 07:25:00,57.1,53.3,30.04,N/A,-737280,0.0,-999.0,87,0.00,,,0.29,Wunderground v.1.15,2013-07-02 11:25:00,
2013-07-02 07:30:00,56.9,53.1,30.04,North,32767,-999.0,0.0,87,0.00,,,0.00,Wunderground v.1.15,2013-07-02 11:30:00,
2013-07-02 07:35:00,56.9,53.4,30.04,North,32767,-999.0,0.0,88,0.00,,,0.00,Wunderground v.1.15,2013-07-02 11:35:00,
2013-07-02 07:40:00,56.9,53.7,30.05,N/A,-737280,0.0,-999.0,89,0.00,,,0.29,Wunderground v.1.15,2013-07-02 11:40:00,
2013-07-02 07:45:00,56.9,53.4,30.05,North,32767,-999.0,0.0,88,0.00,,,0.00,Wunderground v.1.15,2013-07-02 11:45:00,
2013-07-02 07:50:00,57.0,53.8,30.05,N/A,-737280,0.0,-999.0,89,0.00,,,0.29,Wunderground v.1.15,2013-07-02 11:50:00,
2013-07-02 07:55:00,57.2,54.0,30.05,North,32767,-999.0,0.0,89,0.00,,,0.00,Wunderground v.1.15,2013-07-02 11:55:00,
2013-07-02 08:00:00,57.2,54.3,30.05,North,32767,-999.0,0.0,90,0.00,,,0.00,Wunderground v.1.15,2013-07-02 12:00:00,
2013-07-02 08:05:00,57.3,54.4,30.05,N/A,-737280,0.0,-999.0,90,0.01,,,0.29,Wunderground v.1.15,2013-07-02 12:05:00,
2013-07-02 08:10:00,57.4,54.5,30.05,ENE,61,0.0,0.0,90,0.00,,,0.01,Wunderground v.1.15,2013-07-02 12:10:00,
2013-07-02 08:15:00,57.5,54.6,30.05,NE,51,1.0,1.0,90,0.00,,,0.01,Wunderground v.1.15,2013-07-02 12:15:00,
2013-07-02 08:20:00,57.5,54.6,30.05,NE,45,1.0,-999.0,90,0.01,,,0.29,Wunderground v.1.15,2013-07-02 12:20:00,
2013-07-02 08:25:00,57.7,54.8,30.06,NE,55,1.0,2.0,90,0.00,,,0.01,Wunderground v.1.15,2013-07-02 12:25:00,
2013-07-02 08:30:00,57.7,54.8,30.06,NE,45,2.0,-999.0,90,0.01,,,0.29,Wunderground v.1.15,2013-07-02 12:30:00,
2013-07-02 08:35:00,57.9,55.0,30.06,NE,55,2.0,2.0,90,0.00,,,0.01,Wunderground v.1.15,2013-07-02 12:35:00,
2013-07-02 08:40:00,58.0,55.1,30.06,NE,45,1.0,-999.0,90,0.01,,,0.29,Wunderground v.1.15,2013-07-02 12:40:00,
2013-07-02 08:45:00,58.1,55.2,30.06,ENE,59,1.0,2.0,90,0.00,,,0.01,Wunderground v.1.15,2013-07-02 12:45:00,
2013-07-02 08:50:00,58.2,55.3,30.06,ENE,68,3.0,-999.0,90,0.01,,,0.29,Wunderground v.1.15,2013-07-02 12:50:00,
2013-07-02 08:55:00,58.3,55.4,30.06,ENE,59,2.0,2.0,90,0.00,,,0.01,Wunderground v.1.15,2013-07-02 12:55:00,
2013-07-02 09:00:00,58.3,55.7,30.06,NE,51,1.0,2.0,91,0.00,,,0.02,Wunderground v.1.15,2013-07-02 13:00:00,
2013-07-02 09:05:00,58.3,55.7,30.06,ENE,65,1.0,2.0,91,0.00,,,0.02,Wunderground v.1.15,2013-07-02 13:05:00,
2013-07-02 09:10:00,58.3,55.7,30.06,ENE,68,2.0,-999.0,91,0.01,,,0.29,Wunderground v.1.15,2013-07-02 13:10:00,
2013-07-02 09:15:00,58.4,55.8,30.06,ENE,57,2.0,3.0,91,0.00,,,0.02,Wunderground v.1.15,2013-07-02 13:15:00,
2013-07-02 09:20:00,58.4,55.8,30.06,NE,45,2.0,-999.0,91,0.02,,,0.29,Wunderground v.1.15,2013-07-02 13:20:00,
2013-07-02 09:25:00,58.5,55.9,30.06,ENE,65,1.0,3.0,91,0.00,,,0.03,Wunderground v.1.15,2013-07-02 13:25:00,
2013-07-02 09:30:00,58.7,56.4,30.06,ENE,68,1.0,-999.0,92,0.02,,,0.29,Wunderground v.1.15,2013-07-02 13:30:00,
2013-07-02 09:35:00,58.8,56.5,30.06,ENE,59,1.0,1.0,92,0.04,,,0.04,Wunderground v.1.15,2013-07-02 13:35:00,
2013-07-02 09:40:00,58.9,56.6,30.07,NE,45,3.0,-999.0,92,0.03,,,0.29,Wunderground v.1.15,2013-07-02 13:40:00,
2013-07-02 09:45:00,58.7,56.4,30.07,NE,45,2.0,2.0,92,0.05,,,0.05,Wunderground v.1.15,2013-07-02 13:45:00,
2013-07-02 09:50:00,58.6,56.3,30.07,NE,45,5.0,-999.0,92,0.04,,,0.29,Wunderground v.1.15,2013-07-02 13:50:00,
2013-07-02 09:55:00,58.4,56.1,30.06,NE,40,6.0,7.0,92,0.05,,,0.05,Wunderground v.1.15,2013-07-02 13:55:00,
2013-07-02 10:00:00,58.5,56.2,30.07,NE,56,5.0,5.0,92,0.05,,,0.06,Wunderground v.1.15,2013-07-02 14:00:00,
2013-07-02 10:05:00,58.6,56.6,30.07,NE,45,4.0,-999.0,93,0.04,,,0.29,Wunderground v.1.15,2013-07-02 14:05:00,
2013-07-02 10:10:00,58.7,56.7,30.07,NE,44,3.0,3.0,93,0.05,,,0.07,Wunderground v.1.15,2013-07-02 14:10:00,
2013-07-02 10:15:00,58.9,56.9,30.06,NE,40,4.0,5.0,93,0.05,,,0.07,Wunderground v.1.15,2013-07-02 14:15:00,
2013-07-02 10:20:00,58.9,56.9,30.06,NE,45,7.0,-999.0,93,0.05,,,0.29,Wunderground v.1.15,2013-07-02 14:20:00,
2013-07-02 10:25:00,58.9,56.9,30.06,NNE,32,7.0,9.0,93,0.06,,,0.08,Wunderground v.1.15,2013-07-02 14:25:00,
2013-07-02 10:30:00,58.9,56.9,30.06,NE,45,6.0,-999.0,93,0.06,,,0.29,Wunderground v.1.15,2013-07-02 14:30:00,
2013-07-02 10:35:00,58.8,56.8,30.06,NE,43,6.0,7.0,93,0.05,,,0.09,Wunderground v.1.15,2013-07-02 14:35:00,
2013-07-02 10:40:00,58.7,56.7,30.06,NE,45,6.0,-999.0,93,0.05,,,0.29,Wunderground v.1.15,2013-07-02 14:40:00,
2013-07-02 10:45:00,58.6,56.6,30.06,NNE,25,6.0,10.0,93,0.04,,,0.10,Wunderground v.1.15,2013-07-02 14:45:00,
2013-07-02 10:50:00,58.7,57.0,30.06,NNE,21,8.0,9.0,94,0.04,,,0.10,Wunderground v.1.15,2013-07-02 14:50:00,
2013-07-02 10:55:00,58.7,57.0,30.06,NNE,23,8.0,-999.0,94,0.05,,,0.29,Wunderground v.1.15,2013-07-02 14:55:00,
2013-07-02 11:00:00,59.0,57.3,30.06,NNE,33,8.0,8.0,94,0.05,,,0.11,Wunderground v.1.15,2013-07-02 15:00:00,
2013-07-02 11:05:00,59.0,57.3,30.06,NNE,15,8.0,8.0,94,0.08,,,0.12,Wunderground v.1.15,2013-07-02 15:05:00,
2013-07-02 11:10:00,59.0,57.3,30.06,NNE,23,7.0,-999.0,94,0.05,,,0.29,Wunderground v.1.15,2013-07-02 15:10:00,
2013-07-02 11:15:00,59.0,57.3,30.06,NNE,27,6.0,9.0,94,0.06,,,0.13,Wunderground v.1.15,2013-07-02 15:15:00,
2013-07-02 11:20:00,59.0,57.3,30.06,NNE,23,10.0,-999.0,94,0.05,,,0.29,Wunderground v.1.15,2013-07-02 15:20:00,
2013-07-02 11:25:00,59.0,57.3,30.06,NNE,29,9.0,12.0,94,0.07,,,0.14,Wunderground v.1.15,2013-07-02 15:25:00,
2013-07-02 11:30:00,59.1,57.4,30.06,NE,45,9.0,-999.0,94,0.05,,,0.29,Wunderground v.1.15,2013-07-02 15:30:00,
2013-07-02 11:35:00,59.5,57.8,30.06,NE,36,9.0,11.0,94,0.05,,,0.15,Wunderground v.1.15,2013-07-02 15:35:00,
2013-07-02 11:40:00,59.8,58.1,30.06,NE,49,7.0,8.0,94,0.05,,,0.15,Wunderground v.1.15,2013-07-02 15:40:00,
2013-07-02 11:45:00,60.2,58.5,30.06,NNE,22,7.0,8.0,94,0.06,,,0.16,Wunderground v.1.15,2013-07-02 15:45:00,
2013-07-02 11:50:00,60.4,58.7,30.06,NNE,23,8.0,-999.0,94,0.06,,,0.29,Wunderground v.1.15,2013-07-02 15:50:00,
2013-07-02 11:55:00,60.6,58.9,30.06,NE,35,6.0,11.0,94,0.05,,,0.16,Wunderground v.1.15,2013-07-02 15:55:00,
2013-07-02 12:00:00,60.7,58.7,30.06,NNE,23,8.0,-999.0,93,0.06,,,0.29,Wunderground v.1.15,2013-07-02 16:00:00,
2013-07-02 12:05:00,60.8,58.8,30.06,NNE,25,9.0,12.0,93,0.04,,,0.17,Wunderground v.1.15,2013-07-02 16:05:00,
2013-07-02 12:10:00,61.1,59.1,30.06,NE,45,4.0,-999.0,93,0.06,,,0.29,Wunderground v.1.15,2013-07-02 16:10:00,
2013-07-02 12:15:00,61.3,59.3,30.06,NNE,23,6.0,12.0,93,0.05,,,0.18,Wunderground v.1.15,2013-07-02 16:15:00,
2013-07-02 12:20:00,61.4,59.1,30.06,NE,45,7.0,-999.0,92,0.05,,,0.29,Wunderground v.1.15,2013-07-02 16:20:00,
2013-07-02 12:25:00,61.9,59.5,30.06,NE,42,7.0,7.0,92,0.04,,,0.18,Wunderground v.1.15,2013-07-02 16:25:00,
2013-07-02 12:30:00,62.5,60.1,30.06,NNE,24,6.0,11.0,92,0.00,,,0.18,Wunderground v.1.15,2013-07-02 16:30:00,
2013-07-02 12:35:00,62.7,60.0,30.06,NNE,23,10.0,-999.0,91,0.03,,,0.29,Wunderground v.1.15,2013-07-02 16:35:00,
2013-07-02 12:40:00,63.1,60.4,30.06,ESE,117,8.0,8.0,91,0.00,,,0.18,Wunderground v.1.15,2013-07-02 16:40:00,
2013-07-02 12:45:00,63.3,59.7,30.05,ENE,58,6.0,11.0,88,0.00,,,0.18,Wunderground v.1.15,2013-07-02 16:45:00,
2013-07-02 12:50:00,63.3,59.4,30.05,ENE,57,6.0,6.0,87,0.00,,,0.18,Wunderground v.1.15,2013-07-02 16:50:00,
2013-07-02 12:55:00,63.4,59.5,30.05,NE,45,7.0,-999.0,87,0.02,,,0.29,Wunderground v.1.15,2013-07-02 16:55:00,
2013-07-02 13:00:00,64.0,60.1,30.05,SE,140,6.0,6.0,87,0.00,,,0.18,Wunderground v.1.15,2013-07-02 17:00:00,
2013-07-02 13:05:00,64.4,59.8,30.05,NNE,22,6.0,9.0,85,0.00,,,0.18,Wunderground v.1.15,2013-07-02 17:05:00,
2013-07-02 13:10:00,64.4,59.8,30.05,NNE,23,11.0,-999.0,85,0.00,,,0.29,Wunderground v.1.15,2013-07-02 17:10:00,
2013-07-02 13:15:00,64.3,60.0,30.05,East,98,9.0,13.0,86,0.00,,,0.18,Wunderground v.1.15,2013-07-02 17:15:00,
2013-07-02 13:20:00,64.3,59.4,30.05,NNE,23,8.0,-999.0,84,0.00,,,0.29,Wunderground v.1.15,2013-07-02 17:20:00,
2013-07-02 13:25:00,64.5,59.2,30.05,East,79,7.0,9.0,83,0.00,,,0.18,Wunderground v.1.15,2013-07-02 17:25:00,
2013-07-02 13:30:00,64.4,59.1,30.05,NE,45,8.0,-999.0,83,0.00,,,0.29,Wunderground v.1.15,2013-07-02 17:30:00,
2013-07-02 13:35:00,64.5,59.6,30.05,NE,44,8.0,12.0,84,0.00,,,0.18,Wunderground v.1.15,2013-07-02 17:35:00,
2013-07-02 13:40:00,64.7,59.8,30.05,NNE,23,8.0,-999.0,84,0.00,,,0.29,Wunderground v.1.15,2013-07-02 17:40:00,
2013-07-02 13:45:00,65.2,59.9,30.05,ENE,64,8.0,11.0,83,0.00,,,0.18,Wunderground v.1.15,2013-07-02 17:45:00,
2013-07-02 13:50:00,65.4,60.1,30.05,NNE,21,5.0,5.0,83,0.00,,,0.18,Wunderground v.1.15,2013-07-02 17:50:00,
2013-07-02 13:55:00,65.5,59.9,30.05,ENE,63,5.0,5.0,82,0.00,,,0.18,Wunderground v.1.15,2013-07-02 17:55:00,
2013-07-02 14:00:00,65.2,59.6,30.05,NE,45,3.0,-999.0,82,0.00,,,0.29,Wunderground v.1.15,2013-07-02 18:00:00,
2013-07-02 14:05:00,64.7,59.1,30.05,NE,52,4.0,5.0,82,0.00,,,0.18,Wunderground v.1.15,2013-07-02 18:05:00,
2013-07-02 14:10:00,64.4,59.8,30.05,NE,45,2.0,-999.0,85,0.00,,,0.29,Wunderground v.1.15,2013-07-02 18:10:00,
2013-07-02 14:15:00,63.4,59.5,30.05,NE,44,3.0,4.0,87,0.00,,,0.18,Wunderground v.1.15,2013-07-02 18:15:00,
2013-07-02 14:20:00,63.0,59.7,30.05,NE,45,5.0,-999.0,89,0.01,,,0.29,Wunderground v.1.15,2013-07-02 18:20:00,
2013-07-02 14:25:00,62.4,59.4,30.05,NNE,21,6.0,10.0,90,0.00,,,0.19,Wunderground v.1.15,2013-07-02 18:25:00,
2013-07-02 14:30:00,62.0,59.0,30.05,NNE,23,8.0,-999.0,90,0.02,,,0.29,Wunderground v.1.15,2013-07-02 18:30:00,
2013-07-02 14:35:00,61.7,59.0,30.05,NNE,25,8.0,8.0,91,0.05,,,0.20,Wunderground v.1.15,2013-07-02 18:35:00,
2013-07-02 14:40:00,61.7,59.4,30.05,NNE,23,9.0,-999.0,92,0.02,,,0.29,Wunderground v.1.15,2013-07-02 18:40:00,
2013-07-02 14:45:00,61.6,59.3,30.05,NNE,33,8.0,10.0,92,0.04,,,0.21,Wunderground v.1.15,2013-07-02 18:45:00,
2013-07-02 14:50:00,61.7,59.7,30.05,NNE,23,9.0,-999.0,93,0.03,,,0.29,Wunderground v.1.15,2013-07-02 18:50:00,
2013-07-02 14:55:00,61.8,59.8,30.05,NNE,27,9.0,11.0,93,0.07,,,0.22,Wunderground v.1.15,2013-07-02 18:55:00,
2013-07-02 15:00:00,61.9,59.9,30.04,NNE,26,9.0,10.0,93,0.07,,,0.22,Wunderground v.1.15,2013-07-02 19:00:00,
2013-07-02 15:05:00,61.9,59.9,30.04,NNE,17,10.0,10.0,93,0.04,,,0.22,Wunderground v.1.15,2013-07-02 19:05:00,
2013-07-02 15:10:00,61.9,59.9,30.04,NNE,23,10.0,-999.0,93,0.05,,,0.29,Wunderground v.1.15,2013-07-02 19:10:00,
2013-07-02 15:15:00,62.2,60.5,30.04,NNE,19,10.0,10.0,94,0.04,,,0.23,Wunderground v.1.15,2013-07-02 19:15:00,
2013-07-02 15:20:00,62.2,60.2,30.04,NNE,20,11.0,11.0,93,0.06,,,0.24,Wunderground v.1.15,2013-07-02 19:20:00,
2013-07-02 15:25:00,62.4,60.3,30.04,NNE,23,10.0,-999.0,93,0.05,,,0.29,Wunderground v.1.15,2013-07-02 19:25:00,
2013-07-02 15:30:00,62.3,60.2,30.04,NNE,29,10.0,11.0,93,0.05,,,0.24,Wunderground v.1.15,2013-07-02 19:30:00,
2013-07-02 15:35:00,62.5,60.4,30.04,NNE,14,10.0,11.0,93,0.00,,,0.24,Wunderground v.1.15,2013-07-02 19:35:00,
2013-07-02 15:40:00,62.3,60.2,30.04,NNE,23,11.0,-999.0,93,0.05,,,0.29,Wunderground v.1.15,2013-07-02 19:40:00,
2013-07-02 15:45:00,62.3,60.2,30.04,NNE,27,11.0,12.0,93,0.00,,,0.25,Wunderground v.1.15,2013-07-02 19:45:00,
2013-07-02 15:50:00,62.3,60.2,30.03,NNE,23,11.0,-999.0,93,0.05,,,0.29,Wunderground v.1.15,2013-07-02 19:50:00,
2013-07-02 15:55:00,62.3,60.2,30.03,NNE,23,12.0,14.0,93,0.04,,,0.26,Wunderground v.1.15,2013-07-02 19:55:00,
2013-07-02 16:00:00,62.2,60.2,30.03,NNE,23,9.0,-999.0,93,0.04,,,0.29,Wunderground v.1.15,2013-07-02 20:00:00,
2013-07-02 16:05:00,62.2,60.2,30.03,NNE,27,10.0,11.0,93,0.04,,,0.26,Wunderground v.1.15,2013-07-02 20:05:00,
2013-07-02 16:10:00,62.1,60.1,30.03,NNE,23,10.0,-999.0,93,0.04,,,0.29,Wunderground v.1.15,2013-07-02 20:10:00,
2013-07-02 16:15:00,61.8,60.1,30.03,NNE,19,10.0,13.0,94,0.00,,,0.27,Wunderground v.1.15,2013-07-02 20:15:00,
2013-07-02 16:20:00,61.8,60.1,30.03,NNE,20,10.0,10.0,94,0.00,,,0.27,Wunderground v.1.15,2013-07-02 20:20:00,
2013-07-02 16:25:00,61.8,60.1,30.03,NNE,23,11.0,-999.0,94,0.04,,,0.29,Wunderground v.1.15,2013-07-02 20:25:00,
2013-07-02 16:30:00,62.0,60.3,30.03,NNE,20,11.0,11.0,94,0.04,,,0.28,Wunderground v.1.15,2013-07-02 20:30:00,
2013-07-02 16:35:00,62.0,60.3,30.02,NNE,22,10.0,14.0,94,0.04,,,0.28,Wunderground v.1.15,2013-07-02 20:35:00,
2013-07-02 16:40:00,61.9,60.2,30.02,NNE,23,13.0,-999.0,94,0.03,,,0.29,Wunderground v.1.15,2013-07-02 20:40:00,
2013-07-02 16:45:00,62.0,60.3,30.02,North,360,13.0,17.0,94,0.00,,,0.28,Wunderground v.1.15,2013-07-02 20:45:00,
2013-07-02 16:50:00,62.0,60.3,30.02,NNE,23,11.0,-999.0,94,0.03,,,0.29,Wunderground v.1.15,2013-07-02 20:50:00,
2013-07-02 16:55:00,62.1,60.4,30.02,NNE,14,12.0,19.0,94,0.00,,,0.29,Wunderground v.1.15,2013-07-02 20:55:00,
2013-07-02 17:00:00,62.0,60.3,30.02,NNE,23,11.0,-999.0,94,0.03,,,0.29,Wunderground v.1.15,2013-07-02 21:00:00,
2013-07-02 17:05:00,62.1,60.4,30.02,North,9,12.0,13.0,94,0.00,,,0.29,Wunderground v.1.15,2013-07-02 21:05:00,
2013-07-02 17:10:00,62.0,60.3,30.02,NNE,23,13.0,-999.0,94,0.02,,,0.29,Wunderground v.1.15,2013-07-02 21:10:00,
2013-07-02 17:15:00,62.0,60.3,30.02,NE,35,13.0,13.0,94,0.00,,,0.29,Wunderground v.1.15,2013-07-02 21:15:00,
2013-07-02 17:20:00,62.1,60.4,30.02,NNE,23,11.0,-999.0,94,0.02,,,0.29,Wunderground v.1.15,2013-07-02 21:20:00,
2013-07-02 17:25:00,62.2,60.5,30.02,North,360,12.0,14.0,94,0.00,,,0.29,Wunderground v.1.15,2013-07-02 21:25:00,
2013-07-02 17:30:00,62.3,60.6,30.02,NNE,23,11.0,-999.0,94,0.01,,,0.29,Wunderground v.1.15,2013-07-02 21:30:00,
2013-07-02 17:35:00,62.6,60.8,30.02,NNE,26,11.0,13.0,94,0.00,,,0.29,Wunderground v.1.15,2013-07-02 21:35:00,
2013-07-02 17:40:00,62.7,61.5,30.02,NNE,23,12.0,-999.0,96,0.01,,,0.29,Wunderground v.1.15,2013-07-02 21:40:00,
2013-07-02 17:45:00,62.6,61.4,30.02,NNE,30,11.0,11.0,96,0.00,,,0.29,Wunderground v.1.15,2013-07-02 21:45:00,
2013-07-02 17:50:00,62.7,60.9,30.02,NNE,23,11.0,-999.0,94,0.00,,,0.29,Wunderground v.1.15,2013-07-02 21:50:00,
2013-07-02 17:55:00,62.6,60.8,30.01,NE,40,11.0,13.0,94,0.00,,,0.29,Wunderground v.1.15,2013-07-02 21:55:00,
2013-07-02 18:00:00,62.7,60.6,30.02,NNE,23,9.0,-999.0,93,0.00,,,0.29,Wunderground v.1.15,2013-07-02 22:00:00,
2013-07-02 18:05:00,62.6,60.5,30.02,NNE,28,9.0,10.0,93,0.00,,,0.29,Wunderground v.1.15,2013-07-02 22:05:00,
2013-07-02 18:10:00,62.6,60.5,30.02,NNE,23,10.0,-999.0,93,0.00,,,0.29,Wunderground v.1.15,2013-07-02 22:10:00,
2013-07-02 18:15:00,62.5,60.4,30.02,NE,42,9.0,10.0,93,0.00,,,0.29,Wunderground v.1.15,2013-07-02 22:15:00,
2013-07-02 18:20:00,62.5,60.4,30.02,NNE,23,8.0,-999.0,93,0.00,,,0.29,Wunderground v.1.15,2013-07-02 22:20:00,
2013-07-02 18:25:00,62.3,59.9,30.02,NNE,25,8.0,9.0,92,0.00,,,0.29,Wunderground v.1.15,2013-07-02 22:25:00,
2013-07-02 18:30:00,62.3,60.2,30.02,NNE,23,8.0,-999.0,93,0.00,,,0.29,Wunderground v.1.15,2013-07-02 22:30:00,
2013-07-02 18:35:00,62.3,59.9,30.02,NE,42,8.0,9.0,92,0.00,,,0.29,Wunderground v.1.15,2013-07-02 22:35:00,
2013-07-02 18:40:00,62.4,60.3,30.01,NNE,23,6.0,-999.0,93,0.00,,,0.29,Wunderground v.1.15,2013-07-02 22:40:00,
2013-07-02 18:45:00,62.5,60.4,30.01,NNE,25,6.0,7.0,93,0.00,,,0.29,Wunderground v.1.15,2013-07-02 22:45:00,
2013-07-02 18:50:00,62.6,60.5,30.01,NE,45,3.0,-999.0,93,0.00,,,0.29,Wunderground v.1.15,2013-07-02 22:50:00,
2013-07-02 18:55:00,62.7,60.6,30.01,NE,52,3.0,6.0,93,0.00,,,0.29,Wunderground v.1.15,2013-07-02 22:55:00,
2013-07-02 19:00:00,62.7,60.6,30.01,NE,42,3.0,3.0,93,0.00,,,0.29,Wunderground v.1.15,2013-07-02 23:00:00,
2013-07-02 19:05:00,62.6,60.5,30.02,NE,45,1.0,-999.0,93,0.00,,,0.29,Wunderground v.1.15,2013-07-02 23:05:00,
2013-07-02 19:10:00,62.6,60.5,30.02,NNE,17,2.0,2.0,93,0.00,,,0.29,Wunderground v.1.15,2013-07-02 23:10:00,
2013-07-02 19:15:00,62.7,60.6,30.02,ENE,57,1.0,2.0,93,0.00,,,0.29,Wunderground v.1.15,2013-07-02 23:15:00,
2013-07-02 19:20:00,62.7,60.3,30.02,North,0,5.0,-999.0,92,0.00,,,0.29,Wunderground v.1.15,2013-07-02 23:20:00,
2013-07-02 19:25:00,62.8,60.4,30.01,NE,37,6.0,9.0,92,0.00,,,0.29,Wunderground v.1.15,2013-07-02 23:25:00,
2013-07-02 19:30:00,62.8,60.4,30.01,NNE,23,7.0,-999.0,92,0.00,,,0.29,Wunderground v.1.15,2013-07-02 23:30:00,
2013-07-02 19:35:00,62.9,60.5,30.02,NNE,17,8.0,8.0,92,0.00,,,0.29,Wunderground v.1.15,2013-07-02 23:35:00,
2013-07-02 19:40:00,62.9,60.5,30.02,N/A,-737280,0.0,-999.0,92,0.00,,,0.29,Wunderground v.1.15,2013-07-02 23:40:00,
2013-07-02 19:45:00,62.8,60.4,30.02,North,32767,-999.0,8.0,92,0.00,,,0.29,Wunderground v.1.15,2013-07-02 23:45:00,
2013-07-02 19:50:00,62.8,60.4,30.02,North,32767,-999.0,0.0,92,0.00,,,0.29,Wunderground v.1.15,2013-07-02 23:50:00,
2013-07-02 19:55:00,62.7,60.3,30.02,North,32767,-999.0,0.0,92,0.00,,,0.29,Wunderground v.1.15,2013-07-02 23:55:00,
2013-07-02 20:00:00,62.8,60.4,30.02,N/A,-737280,0.0,-999.0,92,0.00,,,0.29,Wunderground v.1.15,2013-07-03 00:00:00,
2013-07-02 20:05:00,62.7,60.3,30.02,North,32767,-999.0,0.0,92,0.00,,,0.29,Wunderground v.1.15,2013-07-03 00:05:00,
2013-07-02 20:10:00,62.7,60.3,30.02,North,32767,-999.0,0.0,92,0.00,,,0.29,Wunderground v.1.15,2013-07-03 00:10:00,
2013-07-02 20:15:00,62.7,60.3,30.02,North,32767,-999.0,0.0,92,0.00,,,0.29,Wunderground v.1.15,2013-07-03 00:15:00,
2013-07-02 20:20:00,62.7,60.3,30.02,North,32767,-999.0,0.0,92,0.00,,,0.29,Wunderground v.1.15,2013-07-03 00:20:00,
2013-07-02 20:25:00,62.6,60.5,30.03,North,32767,-999.0,0.0,93,0.00,,,0.29,Wunderground v.1.15,2013-07-03 00:25:00,
2013-07-02 20:30:00,62.6,60.5,30.03,N/A,-737280,0.0,-999.0,93,0.00,,,0.29,Wunderground v.1.15,2013-07-03 00:30:00,
2013-07-02 20:35:00,62.6,60.5,30.03,North,32767,-999.0,0.0,93,0.00,,,0.29,Wunderground v.1.15,2013-07-03 00:35:00,
2013-07-02 20:40:00,62.7,60.6,30.03,North,32767,-999.0,0.0,93,0.00,,,0.29,Wunderground v.1.15,2013-07-03 00:40:00,
2013-07-02 20:45:00,62.7,60.6,30.03,North,32767,-999.0,0.0,93,0.00,,,0.29,Wunderground v.1.15,2013-07-03 00:45:00,
2013-07-02 20:50:00,62.8,60.7,30.03,N/A,-737280,0.0,-999.0,93,0.00,,,0.29,Wunderground v.1.15,2013-07-03 00:50:00,
2013-07-02 20:55:00,62.8,60.7,30.03,North,32767,-999.0,0.0,93,0.00,,,0.29,Wunderground v.1.15,2013-07-03 00:55:00,
2013-07-02 21:00:00,62.8,60.7,30.03,N/A,-737280,0.0,-999.0,93,0.00,,,0.29,Wunderground v.1.15,2013-07-03 01:00:00,
2013-07-02 21:05:00,62.8,60.7,30.03,North,32767,-999.0,0.0,93,0.00,,,0.29,Wunderground v.1.15,2013-07-03 01:05:00,
2013-07-02 21:10:00,62.8,60.7,30.03,North,32767,-999.0,0.0,93,0.00,,,0.29,Wunderground v.1.15,2013-07-03 01:10:00,
2013-07-02 21:15:00,62.8,60.7,30.03,North,32767,-999.0,0.0,93,0.00,,,0.29,Wunderground v.1.15,2013-07-03 01:15:00,
2013-07-02 21:20:00,62.9,60.8,30.03,North,32767,-999.0,0.0,93,0.00,,,0.29,Wunderground v.1.15,2013-07-03 01:20:00,
2013-07-02 21:25:00,62.9,61.1,30.02,North,32767,-999.0,0.0,94,0.00,,,0.29,Wunderground v.1.15,2013-07-03 01:25:00,
2013-07-02 21:30:00,62.8,61.0,30.02,North,32767,-999.0,0.0,94,0.00,,,0.29,Wunderground v.1.15,2013-07-03 01:30:00,
2013-07-02 21:35:00,62.8,61.0,30.02,North,32767,-999.0,0.0,94,0.00,,,0.29,Wunderground v.1.15,2013-07-03 01:35:00,
2013-07-02 21:40:00,62.8,61.0,30.02,N/A,-737280,0.0,-999.0,94,0.00,,,0.29,Wunderground v.1.15,2013-07-03 01:40:00,
2013-07-02 21:45:00,62.9,61.1,30.02,North,32767,-999.0,0.0,94,0.00,,,0.29,Wunderground v.1.15,2013-07-03 01:45:00,
2013-07-02 21:50:00,62.9,61.1,30.03,North,32767,-999.0,0.0,94,0.00,,,0.29,Wunderground v.1.15,2013-07-03 01:50:00,
2013-07-02 21:55:00,62.9,61.1,30.03,North,32767,-999.0,0.0,94,0.00,,,0.29,Wunderground v.1.15,2013-07-03 01:55:00,
2013-07-02 22:00:00,62.9,61.1,30.03,N/A,-737280,0.0,-999.0,94,0.00,,,0.29,Wunderground v.1.15,2013-07-03 02:00:00,
2013-07-02 22:05:00,62.9,61.1,30.03,North,32767,-999.0,0.0,94,0.00,,,0.29,Wunderground v.1.15,2013-07-03 02:05:00,
2013-07-02 22:10:00,62.8,61.0,30.03,N/A,-737280,0.0,-999.0,94,0.00,,,0.29,Wunderground v.1.15,2013-07-03 02:10:00,
2013-07-02 22:15:00,62.7,60.9,30.03,North,32767,-999.0,0.0,94,0.00,,,0.29,Wunderground v.1.15,2013-07-03 02:15:00,
2013-07-02 22:20:00,62.6,60.5,30.03,N/A,-737280,0.0,-999.0,93,0.00,,,0.29,Wunderground v.1.15,2013-07-03 02:20:00,
2013-07-02 22:25:00,63.1,59.5,30.03,North,32767,-999.0,0.0,88,0.00,,,0.29,Wunderground v.1.15,2013-07-03 02:25:00,
2013-07-02 22:30:00,63.6,58.0,30.03,N/A,-737280,0.0,-999.0,82,0.00,,,0.29,Wunderground v.1.15,2013-07-03 02:30:00,
2013-07-02 22:35:00,63.9,57.6,30.04,North,32767,-999.0,0.0,80,0.00,,,0.29,Wunderground v.1.15,2013-07-03 02:35:00,
2013-07-02 22:40:00,63.9,56.9,30.04,North,32767,-999.0,0.0,78,0.00,,,0.29,Wunderground v.1.15,2013-07-03 02:40:00,
2013-07-02 22:45:00,63.9,56.9,30.04,North,32767,-999.0,0.0,78,0.00,,,0.29,Wunderground v.1.15,2013-07-03 02:45:00,
2013-07-02 22:50:00,63.8,56.4,30.04,N/A,-737280,0.0,-999.0,77,0.00,,,0.29,Wunderground v.1.15,2013-07-03 02:50:00,
2013-07-02 22:55:00,63.7,56.4,30.04,North,32767,-999.0,0.0,77,0.00,,,0.29,Wunderground v.1.15,2013-07-03 02:55:00,
2013-07-02 23:00:00,63.6,56.3,30.04,North,32767,-999.0,0.0,77,0.00,,,0.29,Wunderground v.1.15,2013-07-03 03:00:00,
2013-07-02 23:05:00,63.5,56.2,30.04,North,32767,-999.0,0.0,77,0.00,,,0.29,Wunderground v.1.15,2013-07-03 03:05:00,
2013-07-02 23:10:00,63.4,56.1,30.04,N/A,-737280,0.0,-999.0,77,0.00,,,0.29,Wunderground v.1.15,2013-07-03 03:10:00,
2013-07-02 23:15:00,63.1,55.8,30.03,North,32767,-999.0,0.0,77,0.00,,,0.29,Wunderground v.1.15,2013-07-03 03:15:00,
2013-07-02 23:20:00,62.8,55.8,30.03,N/A,-737280,0.0,-999.0,78,0.00,,,0.29,Wunderground v.1.15,2013-07-03 03:20:00,
2013-07-02 23:25:00,62.5,55.5,30.03,North,32767,-999.0,0.0,78,0.00,,,0.29,Wunderground v.1.15,2013-07-03 03:25:00,
2013-07-02 23:30:00,62.6,55.6,30.03,North,32767,-999.0,0.0,78,0.00,,,0.29,Wunderground v.1.15,2013-07-03 03:30:00,
2013-07-02 23:35:00,62.6,55.6,30.03,North,32767,-999.0,0.0,78,0.00,,,0.29,Wunderground v.1.15,2013-07-03 03:35:00,
2013-07-02 23:40:00,62.6,55.3,30.03,N/A,-737280,0.0,-999.0,77,0.00,,,0.29,Wunderground v.1.15,2013-07-03 03:40:00,
2013-07-02 23:45:00,62.6,55.3,30.03,N/A,-737280,0.0,-999.0,77,0.00,,,0.29,Wunderground v.1.15,2013-07-03 03:45:00,
2013-07-02 23:50:00,62.7,55.0,30.03,N/A,-737280,0.0,-999.0,76,0.00,,,0.29,Wunderground v.1.15,2013-07-03 03:50:00,
2013-07-02 23:55:00,62.9,55.2,30.03,N/A,-737280,0.0,-999.0,76,0.00,,,0.29,Wunderground v.1.15,2013-07-03 03:55:00,